Time,TemperatureF,DewpointF,PressureIn,WindDirection,WindDirectionDegrees,WindSpeedMPH,WindSpeedGustMPH,Humidity,HourlyPrecipIn,Conditions,Clouds,dailyrainin,SolarRadiationWatts/m^2,SoftwareType,DateUTC
2013-03-28 00:00:00,55.9,46.7,30.09,SSE,148,6.0,14.0,71,0.00,,---,0.00,0.00,VWS V14.00,2013-03-28 05:00:00,
2013-03-28 00:05:00,55.8,46.9,30.09,SE,144,8.0,13.0,72,0.00,,---,0.00,0.00,VWS V14.00,2013-03-28 05:05:00,
2013-03-28 00:10:00,55.8,46.9,30.09,SE,143,0.0,14.0,72,0.00,,---,0.00,0.00,VWS V14.00,2013-03-28 05:10:00,
2013-03-28 00:15:00,55.7,46.8,30.09,SE,146,5.0,11.0,72,0.00,,---,0.00,0.00,VWS V14.00,2013-03-28 05:15:00,
2013-03-28 00:20:00,55.6,46.7,30.09,SE,138,4.0,11.0,72,0.00,,---,0.00,0.00,VWS V14.00,2013-03-28 05:20:00,
2013-03-28 00:25:00,55.5,47.0,30.09,SSE,159,4.0,12.0,73,0.00,,---,0.00,0.00,VWS V14.00,2013-03-28 05:25:00,
2013-03-28 00:30:00,55.5,47.0,30.09,SSE,150,2.0,12.0,73,0.00,,---,0.00,0.00,VWS V14.00,2013-03-28 05:30:00,
2013-03-28 00:35:00,55.4,47.3,30.09,SSE,156,4.0,10.0,74,0.00,,---,0.00,0.00,VWS V14.00,2013-03-28 05:35:00,
2013-03-28 00:40:00,55.3,47.2,30.08,SE,145,7.0,13.0,74,0.00,,---,0.00,0.00,VWS V14.00,2013-03-28 05:40:00,
2013-03-28 00:45:00,55.3,47.2,30.08,SSE,156,4.0,10.0,74,0.00,,---,0.00,0.00,VWS V14.00,2013-03-28 05:45:00,
2013-03-28 00:50:00,55.2,47.4,30.08,SE,140,7.0,17.0,75,0.00,,---,0.00,0.00,VWS V14.00,2013-03-28 05:50:00,
2013-03-28 00:55:00,55.2,47.4,30.08,SSE,151,6.0,10.0,75,0.00,,---,0.00,0.00,VWS V14.00,2013-03-28 05:55:00,
2013-03-28 01:00:00,55.2,47.4,30.08,SE,134,4.0,13.0,75,0.00,,---,0.00,0.00,VWS V14.00,2013-03-28 06:00:00,
2013-03-28 01:05:00,55.1,47.7,30.08,South,174,7.0,10.0,76,0.00,,---,0.00,0.00,VWS V14.00,2013-03-28 06:05:00,
2013-03-28 01:10:00,55.0,47.6,30.08,SSE,155,6.0,10.0,76,0.00,,---,0.00,0.00,VWS V14.00,2013-03-28 06:10:00,
2013-03-28 01:15:00,55.0,47.6,30.08,SSE,157,7.0,11.0,76,0.00,,---,0.00,0.00,VWS V14.00,2013-03-28 06:15:00,
2013-03-28 01:20:00,55.0,47.6,30.08,SSE,150,5.0,11.0,76,0.00,,---,0.00,0.00,VWS V14.00,2013-03-28 06:20:00,
2013-03-28 01:25:00,54.9,47.8,30.08,SE,133,5.0,14.0,77,0.00,,---,0.00,0.00,VWS V14.00,2013-03-28 06:25:00,
2013-03-28 01:30:00,54.8,47.7,30.08,SE,144,6.0,14.0,77,0.00,,---,0.00,0.00,VWS V14.00,2013-03-28 06:30:00,
2013-03-28 01:35:00,54.8,47.7,30.08,SE,143,9.0,13.0,77,0.00,,---,0.00,0.00,VWS V14.00,2013-03-28 06:35:00,
2013-03-28 01:40:00,54.8,47.7,30.08,SE,146,2.0,13.0,77,0.00,,---,0.00,0.00,VWS V14.00,2013-03-28 06:40:00,
2013-03-28 01:45:00,54.7,48.0,30.07,SSE,147,5.0,7.0,78,0.00,,---,0.00,0.00,VWS V14.00,2013-03-28 06:45:00,
2013-03-28 01:50:00,54.5,47.8,30.07,SE,146,0.0,9.0,78,0.00,,---,0.00,0.00,VWS V14.00,2013-03-28 06:50:00,
2013-03-28 01:55:00,54.5,48.1,30.07,SE,140,4.0,11.0,79,0.00,,---,0.00,0.00,VWS V14.00,2013-03-28 06:55:00,
2013-03-28 02:00:00,54.4,48.0,30.07,SE,140,6.0,12.0,79,0.00,,---,0.00,0.00,VWS V14.00,2013-03-28 07:00:00,
2013-03-28 02:05:00,54.4,48.0,30.07,SSE,154,8.0,9.0,79,0.00,,---,0.00,0.00,VWS V14.00,2013-03-28 07:05:00,
2013-03-28 02:10:00,54.4,48.4,30.07,SSE,153,6.0,10.0,80,0.00,,---,0.00,0.00,VWS V14.00,2013-03-28 07:10:00,
2013-03-28 02:15:00,54.4,48.4,30.07,SE,146,8.0,12.0,80,0.00,,---,0.00,0.00,VWS V14.00,2013-03-28 07:15:00,
2013-03-28 02:20:00,54.4,48.4,30.06,SSE,154,7.0,18.0,80,0.00,,---,0.00,0.00,VWS V14.00,2013-03-28 07:20:00,
2013-03-28 02:25:00,54.4,48.4,30.06,ESE,123,1.0,9.0,80,0.00,,---,0.00,0.00,VWS V14.00,2013-03-28 07:25:00,
2013-03-28 02:30:00,54.3,48.3,30.06,SE,131,5.0,13.0,80,0.00,,---,0.00,0.00,VWS V14.00,2013-03-28 07:30:00,
2013-03-28 02:35:00,54.3,48.6,30.06,SSE,158,9.0,11.0,81,0.00,,---,0.00,0.00,VWS V14.00,2013-03-28 07:35:00,
2013-03-28 02:40:00,54.3,48.6,30.06,SSE,155,9.0,13.0,81,0.00,,---,0.00,0.00,VWS V14.00,2013-03-28 07:40:00,
2013-03-28 02:45:00,54.2,48.5,30.05,South,188,1.0,11.0,81,0.00,,---,0.00,0.00,VWS V14.00,2013-03-28 07:45:00,
2013-03-28 02:49:00,54.2,48.5,30.05,SSE,150,6.0,11.0,81,0.00,,---,0.00,0.00,VWS V14.00,2013-03-28 07:49:00,
2013-03-28 02:54:00,54.1,48.4,30.05,SSE,148,6.0,9.0,81,0.00,,---,0.00,0.00,VWS V14.00,2013-03-28 07:54:00,
2013-03-28 02:59:00,54.1,48.4,30.04,SSE,151,2.0,9.0,81,0.00,,---,0.00,0.00,VWS V14.00,2013-03-28 07:59:00,
2013-03-28 03:04:00,54.1,48.7,30.04,SSE,159,6.0,10.0,82,0.00,,---,0.00,0.00,VWS V14.00,2013-03-28 08:04:00,
2013-03-28 03:09:00,54.0,48.6,30.04,SSE,159,7.0,10.0,82,0.00,,---,0.00,0.00,VWS V14.00,2013-03-28 08:09:00,
2013-03-28 03:14:00,54.0,48.6,30.03,SE,133,4.0,13.0,82,0.00,,---,0.00,0.00,VWS V14.00,2013-03-28 08:14:00,
2013-03-28 03:19:00,54.0,48.6,30.03,SSE,153,9.0,13.0,82,0.00,,---,0.00,0.00,VWS V14.00,2013-03-28 08:19:00,
2013-03-28 03:24:00,54.0,48.6,30.03,SSE,149,6.0,9.0,82,0.00,,---,0.00,0.00,VWS V14.00,2013-03-28 08:24:00,
2013-03-28 03:29:00,54.0,48.6,30.03,SE,126,5.0,12.0,82,0.00,,---,0.00,0.00,VWS V14.00,2013-03-28 08:29:00,
2013-03-28 03:34:00,54.0,49.0,30.03,SSE,148,6.0,9.0,83,0.00,,---,0.00,0.00,VWS V14.00,2013-03-28 08:34:00,
2013-03-28 03:39:00,54.0,49.0,30.02,SE,146,1.0,11.0,83,0.00,,---,0.00,0.00,VWS V14.00,2013-03-28 08:39:00,
2013-03-28 03:44:00,54.0,49.0,30.02,SSE,150,5.0,13.0,83,0.00,,---,0.00,0.00,VWS V14.00,2013-03-28 08:44:00,
2013-03-28 03:49:00,54.1,49.1,30.01,SSE,157,1.0,13.0,83,0.00,,---,0.00,0.00,VWS V14.00,2013-03-28 08:49:00,
2013-03-28 03:54:00,54.2,49.2,30.01,SE,146,8.0,10.0,83,0.00,,---,0.00,0.00,VWS V14.00,2013-03-28 08:54:00,
2013-03-28 03:59:00,54.2,49.2,30.01,SSE,162,6.0,12.0,83,0.00,,---,0.00,0.00,VWS V14.00,2013-03-28 08:59:00,
2013-03-28 04:04:00,54.3,49.3,30.01,SSE,158,2.0,10.0,83,0.00,,---,0.00,0.00,VWS V14.00,2013-03-28 09:04:00,
2013-03-28 04:09:00,54.3,49.3,30.01,SSE,159,6.0,10.0,83,0.00,,---,0.00,0.00,VWS V14.00,2013-03-28 09:09:00,
2013-03-28 04:14:00,54.3,49.3,30.02,SSE,167,7.0,11.0,83,0.00,,---,0.00,0.00,VWS V14.00,2013-03-28 09:14:00,
2013-03-28 04:19:00,54.3,49.6,30.02,SSE,157,4.0,12.0,84,0.00,,---,0.00,0.00,VWS V14.00,2013-03-28 09:19:00,
2013-03-28 04:24:00,54.3,49.3,30.02,SSE,149,6.0,6.0,83,0.00,,---,0.00,0.00,VWS V14.00,2013-03-28 09:24:00,
2013-03-28 04:29:00,54.3,49.3,30.02,SE,138,0.0,9.0,83,0.00,,---,0.00,0.00,VWS V14.00,2013-03-28 09:29:00,
2013-03-28 04:34:00,54.2,49.2,30.01,SE,140,4.0,5.0,83,0.00,,---,0.00,0.00,VWS V14.00,2013-03-28 09:34:00,
2013-03-28 04:39:00,54.2,49.5,30.02,SE,144,1.0,9.0,84,0.00,,---,0.00,0.00,VWS V14.00,2013-03-28 09:39:00,
2013-03-28 04:44:00,54.2,49.5,30.02,West,278,1.0,4.0,84,0.00,,---,0.00,0.00,VWS V14.00,2013-03-28 09:44:00,
2013-03-28 04:49:00,54.1,49.4,30.02,SSW,195,5.0,7.0,84,0.00,,---,0.00,0.00,VWS V14.00,2013-03-28 09:49:00,
2013-03-28 04:54:00,54.2,49.5,30.02,SSW,192,2.0,4.0,84,0.00,,---,0.00,0.00,VWS V14.00,2013-03-28 09:54:00,
2013-03-28 04:59:00,54.1,49.7,30.03,South,186,3.0,5.0,85,0.00,,---,0.00,0.00,VWS V14.00,2013-03-28 09:59:00,
2013-03-28 05:04:00,54.1,49.7,30.03,SSE,151,0.0,6.0,85,0.00,,---,0.00,0.00,VWS V14.00,2013-03-28 10:04:00,
2013-03-28 05:09:00,54.1,49.7,30.03,SSE,152,0.0,6.0,85,0.00,,---,0.00,0.00,VWS V14.00,2013-03-28 10:09:00,
2013-03-28 05:14:00,54.1,49.7,30.03,SSE,152,0.0,5.0,85,0.00,,---,0.00,0.00,VWS V14.00,2013-03-28 10:14:00,
2013-03-28 05:19:00,54.1,49.7,30.02,SSE,157,4.0,6.0,85,0.00,,---,0.00,0.00,VWS V14.00,2013-03-28 10:19:00,
2013-03-28 05:24:00,54.2,49.8,30.03,SSE,148,0.0,4.0,85,0.00,,---,0.00,0.00,VWS V14.00,2013-03-28 10:24:00,
2013-03-28 05:29:00,54.1,49.7,30.03,SSE,148,1.0,4.0,85,0.00,,---,0.00,0.00,VWS V14.00,2013-03-28 10:29:00,
2013-03-28 05:34:00,54.1,49.7,30.03,SSE,163,7.0,9.0,85,0.00,,---,0.00,0.00,VWS V14.00,2013-03-28 10:34:00,
2013-03-28 05:39:00,54.2,49.8,30.03,SSE,163,1.0,9.0,85,0.00,,---,0.00,0.00,VWS V14.00,2013-03-28 10:39:00,
2013-03-28 05:44:00,54.3,50.2,30.03,SSE,163,2.0,6.0,86,0.00,,---,0.00,0.00,VWS V14.00,2013-03-28 10:44:00,
2013-03-28 05:49:00,54.4,50.3,30.03,SSE,163,4.0,6.0,86,0.00,,---,0.00,0.00,VWS V14.00,2013-03-28 10:49:00,
2013-03-28 05:54:00,54.5,50.4,30.03,SSE,165,1.0,8.0,86,0.00,,---,0.00,0.00,VWS V14.00,2013-03-28 10:54:00,
2013-03-28 05:59:00,54.7,50.6,30.03,SSE,166,5.0,8.0,86,0.00,,---,0.00,0.00,VWS V14.00,2013-03-28 10:59:00,
2013-03-28 06:04:00,54.9,50.8,30.03,SSE,166,0.0,5.0,86,0.00,,---,0.00,0.00,VWS V14.00,2013-03-28 11:04:00,
2013-03-28 06:09:00,55.0,50.9,30.04,SSE,166,2.0,8.0,86,0.00,,---,0.00,0.00,VWS V14.00,2013-03-28 11:09:00,
2013-03-28 06:14:00,55.1,51.0,30.03,SSE,166,5.0,6.0,86,0.00,,---,0.00,0.00,VWS V14.00,2013-03-28 11:14:00,
2013-03-28 06:19:00,55.3,50.9,30.04,SSE,165,4.0,9.0,85,0.00,,---,0.00,0.00,VWS V14.00,2013-03-28 11:19:00,
2013-03-28 06:24:00,55.4,51.0,30.04,SSE,161,7.0,9.0,85,0.00,,---,0.00,0.00,VWS V14.00,2013-03-28 11:24:00,
2013-03-28 06:29:00,55.6,51.2,30.04,SSE,161,0.0,9.0,85,0.00,,---,0.00,0.00,VWS V14.00,2013-03-28 11:29:00,
2013-03-28 06:34:00,55.7,51.3,30.04,SSE,161,2.0,7.0,85,0.00,,---,0.00,0.00,VWS V14.00,2013-03-28 11:34:00,
2013-03-28 06:39:00,55.8,51.4,30.04,SSE,161,1.0,7.0,85,0.00,,---,0.00,0.00,VWS V14.00,2013-03-28 11:39:00,
2013-03-28 06:44:00,55.8,51.4,30.04,SSE,164,8.0,8.0,85,0.00,,---,0.00,0.00,VWS V14.00,2013-03-28 11:44:00,
2013-03-28 06:49:00,55.9,51.5,30.04,SSE,164,5.0,8.0,85,0.00,,---,0.00,0.00,VWS V14.00,2013-03-28 11:49:00,
2013-03-28 06:54:00,56.0,51.6,30.04,SSE,164,7.0,8.0,85,0.00,,---,0.00,0.00,VWS V14.00,2013-03-28 11:54:00,
2013-03-28 06:59:00,56.2,51.4,30.04,SSE,159,5.0,10.0,84,0.00,,---,0.00,0.00,VWS V14.00,2013-03-28 11:59:00,
2013-03-28 07:04:00,56.2,51.4,30.04,SSE,151,6.0,9.0,84,0.00,,---,0.00,0.00,VWS V14.00,2013-03-28 12:04:00,
2013-03-28 07:09:00,56.3,51.5,30.04,SSE,151,1.0,9.0,84,0.00,,---,0.00,0.00,VWS V14.00,2013-03-28 12:09:00,
2013-03-28 07:14:00,56.4,51.6,30.04,SSE,149,2.0,10.0,84,0.00,,---,0.00,0.00,VWS V14.00,2013-03-28 12:14:00,
2013-03-28 07:19:00,56.4,51.6,30.04,SSE,148,2.0,10.0,84,0.00,,---,0.00,0.00,VWS V14.00,2013-03-28 12:19:00,
2013-03-28 07:24:00,56.5,51.7,30.05,SSE,148,4.0,6.0,84,0.00,,---,0.00,0.00,VWS V14.00,2013-03-28 12:24:00,
2013-03-28 07:29:00,56.5,51.7,30.05,SSE,148,0.0,8.0,84,0.00,,---,0.00,0.00,VWS V14.00,2013-03-28 12:29:00,
2013-03-28 07:34:00,56.6,51.8,30.05,SE,141,0.0,10.0,84,0.00,,---,0.00,0.00,VWS V14.00,2013-03-28 12:34:00,
2013-03-28 07:39:00,56.6,51.8,30.05,SE,146,2.0,10.0,84,0.00,,---,0.00,7.00,VWS V14.00,2013-03-28 12:39:00,
2013-03-28 07:44:00,56.7,51.9,30.04,SSE,148,7.0,12.0,84,0.00,,---,0.00,9.00,VWS V14.00,2013-03-28 12:44:00,
2013-03-28 07:49:00,56.7,51.9,30.05,SSE,149,4.0,12.0,84,0.00,,---,0.00,11.00,VWS V14.00,2013-03-28 12:49:00,
2013-03-28 07:54:00,56.8,52.0,30.05,SSE,148,5.0,8.0,84,0.00,,---,0.00,16.00,VWS V14.00,2013-03-28 12:54:00,
2013-03-28 07:59:00,56.9,52.1,30.05,SSE,150,0.0,8.0,84,0.00,,---,0.00,21.00,VWS V14.00,2013-03-28 12:59:00,
2013-03-28 08:04:00,56.9,52.4,30.05,SSE,151,5.0,6.0,85,0.00,,---,0.00,23.00,VWS V14.00,2013-03-28 13:04:00,
2013-03-28 08:09:00,56.9,52.1,30.05,SSE,149,4.0,10.0,84,0.00,,---,0.00,33.00,VWS V14.00,2013-03-28 13:09:00,
2013-03-28 08:14:00,57.0,52.5,30.05,SSE,151,1.0,6.0,85,0.00,,---,0.00,35.00,VWS V14.00,2013-03-28 13:14:00,
2013-03-28 08:19:00,57.1,52.6,30.05,SE,146,12.0,13.0,85,0.00,,---,0.00,40.00,VWS V14.00,2013-03-28 13:19:00,
2013-03-28 08:24:00,57.2,52.7,30.05,SSE,148,4.0,9.0,85,0.00,,---,0.00,42.00,VWS V14.00,2013-03-28 13:24:00,
2013-03-28 08:29:00,57.3,52.5,30.06,SE,145,5.0,9.0,84,0.00,,---,0.00,58.00,VWS V14.00,2013-03-28 13:29:00,
2013-03-28 08:34:00,57.4,52.6,30.05,SE,145,2.0,7.0,84,0.00,,---,0.00,76.00,VWS V14.00,2013-03-28 13:34:00,
2013-03-28 08:39:00,57.5,52.7,30.05,SE,144,7.0,8.0,84,0.00,,---,0.00,77.00,VWS V14.00,2013-03-28 13:39:00,
2013-03-28 08:44:00,57.6,52.8,30.06,SE,146,4.0,6.0,84,0.00,,---,0.00,79.00,VWS V14.00,2013-03-28 13:44:00,
2013-03-28 08:49:00,57.7,52.9,30.06,SE,146,4.0,9.0,84,0.00,,---,0.00,76.00,VWS V14.00,2013-03-28 13:49:00,
2013-03-28 08:54:00,57.8,53.0,30.06,SE,145,4.0,8.0,84,0.00,,---,0.00,65.00,VWS V14.00,2013-03-28 13:54:00,
2013-03-28 08:59:00,58.0,53.2,30.06,SE,145,4.0,9.0,84,0.00,,---,0.00,60.00,VWS V14.00,2013-03-28 13:59:00,
2013-03-28 09:04:00,58.1,53.3,30.06,SE,145,4.0,7.0,84,0.00,,---,0.00,88.00,VWS V14.00,2013-03-28 14:04:00,
2013-03-28 09:09:00,58.2,53.4,30.06,SE,145,1.0,8.0,84,0.00,,---,0.00,111.00,VWS V14.00,2013-03-28 14:09:00,
2013-03-28 09:14:00,58.4,53.6,30.06,SE,145,5.0,10.0,84,0.00,,---,0.00,123.00,VWS V14.00,2013-03-28 14:14:00,
2013-03-28 09:19:00,58.6,53.8,30.06,SE,146,6.0,10.0,84,0.00,,---,0.00,90.00,VWS V14.00,2013-03-28 14:19:00,
2013-03-28 09:24:00,58.7,53.6,30.06,SSE,151,7.0,7.0,83,0.00,,---,0.00,113.00,VWS V14.00,2013-03-28 14:24:00,
2013-03-28 09:29:00,58.9,53.8,30.06,SSE,154,6.0,8.0,83,0.00,,---,0.00,121.00,VWS V14.00,2013-03-28 14:29:00,
2013-03-28 09:34:00,59.1,54.0,30.06,SE,143,9.0,11.0,83,0.00,,---,0.00,158.00,VWS V14.00,2013-03-28 14:34:00,
2013-03-28 09:39:00,59.2,54.0,30.06,SE,142,9.0,11.0,83,0.00,,---,0.00,186.00,VWS V14.00,2013-03-28 14:39:00,
2013-03-28 09:44:00,59.3,53.8,30.06,SE,141,5.0,12.0,82,0.00,,---,0.00,155.00,VWS V14.00,2013-03-28 14:44:00,
2013-03-28 09:49:00,59.5,54.0,30.06,SE,144,7.0,12.0,82,0.00,,---,0.00,134.00,VWS V14.00,2013-03-28 14:49:00,
2013-03-28 09:54:00,59.5,54.0,30.06,SE,135,7.0,14.0,82,0.00,,---,0.00,160.00,VWS V14.00,2013-03-28 14:54:00,
2013-03-28 09:59:00,59.5,54.0,30.06,SE,145,5.0,14.0,82,0.00,,---,0.00,192.00,VWS V14.00,2013-03-28 14:59:00,
2013-03-28 10:04:00,59.6,54.1,30.06,SE,135,10.0,12.0,82,0.00,,---,0.00,234.00,VWS V14.00,2013-03-28 15:04:00,
2013-03-28 10:09:00,59.8,54.3,30.06,SE,125,11.0,15.0,82,0.00,,---,0.00,269.00,VWS V14.00,2013-03-28 15:09:00,
2013-03-28 10:14:00,60.0,54.5,30.06,SE,136,2.0,12.0,82,0.00,,---,0.00,211.00,VWS V14.00,2013-03-28 15:14:00,
2013-03-28 10:19:00,60.2,54.4,30.06,SSE,153,8.0,12.0,81,0.00,,---,0.00,244.00,VWS V14.00,2013-03-28 15:19:00,
2013-03-28 10:24:00,60.3,54.5,30.06,SE,125,8.0,14.0,81,0.00,,---,0.00,302.00,VWS V14.00,2013-03-28 15:24:00,
2013-03-28 10:29:00,60.5,54.7,30.06,South,175,4.0,14.0,81,0.00,,---,0.00,246.00,VWS V14.00,2013-03-28 15:29:00,
2013-03-28 10:34:00,60.7,54.8,30.07,SSW,197,4.0,11.0,81,0.00,,---,0.00,218.00,VWS V14.00,2013-03-28 15:34:00,
2013-03-28 10:39:00,60.8,54.6,30.07,South,181,6.0,12.0,80,0.00,,---,0.00,237.00,VWS V14.00,2013-03-28 15:39:00,
2013-03-28 10:44:00,61.0,54.8,30.06,SSE,158,8.0,12.0,80,0.00,,---,0.00,269.00,VWS V14.00,2013-03-28 15:44:00,
2013-03-28 10:49:00,61.2,55.0,30.07,SSE,154,12.0,15.0,80,0.00,,---,0.00,309.00,VWS V14.00,2013-03-28 15:49:00,
2013-03-28 10:54:00,61.4,55.2,30.06,SSE,166,5.0,12.0,80,0.00,,---,0.00,299.00,VWS V14.00,2013-03-28 15:54:00,
2013-03-28 10:59:00,61.8,55.2,30.06,SSE,149,9.0,12.0,79,0.00,,---,0.00,260.00,VWS V14.00,2013-03-28 15:59:00,
2013-03-28 11:04:00,62.0,55.4,30.07,South,188,5.0,11.0,79,0.00,,---,0.00,250.00,VWS V14.00,2013-03-28 16:04:00,
2013-03-28 11:09:00,62.2,55.3,30.07,South,171,2.0,12.0,78,0.00,,---,0.00,271.00,VWS V14.00,2013-03-28 16:09:00,
2013-03-28 11:14:00,62.4,55.5,30.07,SSE,162,4.0,7.0,78,0.00,,---,0.00,207.00,VWS V14.00,2013-03-28 16:14:00,
2013-03-28 11:19:00,62.5,55.6,30.07,SSW,196,3.0,14.0,78,0.00,,---,0.00,297.00,VWS V14.00,2013-03-28 16:19:00,
2013-03-28 11:24:00,62.5,55.6,30.07,SSW,207,11.0,11.0,78,0.00,,---,0.00,283.00,VWS V14.00,2013-03-28 16:24:00,
2013-03-28 11:29:00,62.7,55.8,30.07,SE,146,6.0,11.0,78,0.00,,---,0.00,294.00,VWS V14.00,2013-03-28 16:29:00,
2013-03-28 11:34:00,63.0,55.7,30.07,SSW,198,8.0,12.0,77,0.00,,---,0.00,376.00,VWS V14.00,2013-03-28 16:34:00,
2013-03-28 11:39:00,63.1,55.8,30.07,South,182,5.0,12.0,77,0.00,,---,0.00,299.00,VWS V14.00,2013-03-28 16:39:00,
2013-03-28 11:44:00,63.1,55.8,30.07,SSE,157,6.0,13.0,77,0.00,,---,0.00,329.00,VWS V14.00,2013-03-28 16:44:00,
2013-03-28 11:49:00,63.0,55.7,30.07,SSE,150,10.0,13.0,77,0.00,,---,0.00,422.00,VWS V14.00,2013-03-28 16:49:00,
2013-03-28 11:54:00,63.0,55.7,30.06,SSE,149,1.0,12.0,77,0.00,,---,0.00,380.00,VWS V14.00,2013-03-28 16:54:00,
2013-03-28 11:59:00,63.6,56.3,30.06,SSE,150,8.0,16.0,77,0.00,,---,0.00,527.00,VWS V14.00,2013-03-28 16:59:00,
2013-03-28 12:04:00,64.4,56.7,30.06,SE,140,7.0,12.0,76,0.00,,---,0.00,527.00,VWS V14.00,2013-03-28 17:04:00,
2013-03-28 12:09:00,64.9,56.4,30.06,SW,225,6.0,14.0,74,0.00,,---,0.00,346.00,VWS V14.00,2013-03-28 17:09:00,
2013-03-28 12:14:00,65.0,56.2,30.06,South,171,7.0,11.0,73,0.00,,---,0.00,359.00,VWS V14.00,2013-03-28 17:14:00,
2013-03-28 12:19:00,64.9,56.0,30.06,SSE,166,9.0,12.0,73,0.00,,---,0.00,257.00,VWS V14.00,2013-03-28 17:19:00,
2013-03-28 12:24:00,64.9,56.0,30.06,South,171,6.0,9.0,73,0.00,,---,0.00,257.00,VWS V14.00,2013-03-28 17:24:00,
2013-03-28 12:29:00,65.0,56.2,30.05,SSE,157,5.0,14.0,73,0.00,,---,0.00,279.00,VWS V14.00,2013-03-28 17:29:00,
2013-03-28 12:34:00,64.9,56.0,30.06,South,183,5.0,13.0,73,0.00,,---,0.00,339.00,VWS V14.00,2013-03-28 17:34:00,
2013-03-28 12:39:00,64.9,56.0,30.05,SE,126,7.0,15.0,73,0.00,,---,0.00,250.00,VWS V14.00,2013-03-28 17:39:00,
2013-03-28 12:44:00,64.8,56.0,30.05,SE,146,9.0,13.0,73,0.00,,---,0.00,383.00,VWS V14.00,2013-03-28 17:44:00,
2013-03-28 12:49:00,64.8,56.3,30.04,SE,144,7.0,13.0,74,0.00,,---,0.00,318.00,VWS V14.00,2013-03-28 17:49:00,
2013-03-28 12:54:00,64.9,56.0,30.05,SSE,164,7.0,15.0,73,0.00,,---,0.00,229.00,VWS V14.00,2013-03-28 17:54:00,
2013-03-28 12:59:00,64.8,56.0,30.04,SSE,148,4.0,16.0,73,0.00,,---,0.00,257.00,VWS V14.00,2013-03-28 17:59:00,
2013-03-28 13:04:00,64.8,56.3,30.04,SW,227,4.0,11.0,74,0.00,,---,0.00,323.00,VWS V14.00,2013-03-28 18:04:00,
2013-03-28 13:09:00,64.9,56.4,30.04,SSE,163,6.0,15.0,74,0.00,,---,0.00,236.00,VWS V14.00,2013-03-28 18:09:00,
2013-03-28 13:14:00,64.9,56.4,30.04,SSE,159,5.0,11.0,74,0.00,,---,0.00,241.00,VWS V14.00,2013-03-28 18:14:00,
2013-03-28 13:19:00,64.9,56.8,30.04,SSE,158,7.0,12.0,75,0.00,,---,0.00,264.00,VWS V14.00,2013-03-28 18:19:00,
2013-03-28 13:24:00,64.9,56.8,30.04,SSE,147,6.0,17.0,75,0.00,,---,0.00,302.00,VWS V14.00,2013-03-28 18:24:00,
2013-03-28 13:29:00,65.2,56.7,30.04,South,175,8.0,17.0,74,0.00,,---,0.00,334.00,VWS V14.00,2013-03-28 18:29:00,
2013-03-28 13:34:00,65.3,56.8,30.03,SSE,150,8.0,11.0,74,0.00,,---,0.00,345.00,VWS V14.00,2013-03-28 18:34:00,
2013-03-28 13:39:00,65.5,57.0,30.03,SE,133,8.0,17.0,74,0.00,,---,0.00,385.00,VWS V14.00,2013-03-28 18:39:00,
2013-03-28 13:44:00,65.7,56.8,30.03,South,171,6.0,11.0,73,0.00,,---,0.00,250.00,VWS V14.00,2013-03-28 18:44:00,
2013-03-28 13:49:00,66.0,56.7,30.02,SW,215,2.0,12.0,72,0.00,,---,0.00,352.00,VWS V14.00,2013-03-28 18:49:00,
2013-03-28 13:54:00,66.1,56.8,30.02,WSW,240,7.0,12.0,72,0.00,,---,0.00,411.00,VWS V14.00,2013-03-28 18:54:00,
2013-03-28 13:59:00,66.2,56.5,30.03,SE,140,12.0,13.0,71,0.00,,---,0.00,301.00,VWS V14.00,2013-03-28 18:59:00,
2013-03-28 14:04:00,66.3,56.6,30.02,SSE,167,5.0,9.0,71,0.00,,---,0.00,362.00,VWS V14.00,2013-03-28 19:04:00,
2013-03-28 14:09:00,66.9,57.2,30.02,SSE,150,12.0,18.0,71,0.00,,---,0.00,373.00,VWS V14.00,2013-03-28 19:09:00,
2013-03-28 14:14:00,67.3,57.2,30.01,SSE,151,12.0,14.0,70,0.00,,---,0.00,388.00,VWS V14.00,2013-03-28 19:14:00,
2013-03-28 14:19:00,67.3,57.2,30.01,SE,144,4.0,16.0,70,0.00,,---,0.00,311.00,VWS V14.00,2013-03-28 19:19:00,
2013-03-28 14:24:00,67.5,57.0,30.01,SSE,147,11.0,17.0,69,0.00,,---,0.00,457.00,VWS V14.00,2013-03-28 19:24:00,
2013-03-28 14:29:00,67.6,56.7,30.00,South,177,7.0,17.0,68,0.00,,---,0.00,325.00,VWS V14.00,2013-03-28 19:29:00,
2013-03-28 14:34:00,67.9,56.5,30.00,SSW,196,6.0,12.0,67,0.00,,---,0.00,403.00,VWS V14.00,2013-03-28 19:34:00,
2013-03-28 14:39:00,68.4,57.0,30.00,SE,135,6.0,12.0,67,0.00,,---,0.00,410.00,VWS V14.00,2013-03-28 19:39:00,
2013-03-28 14:44:00,68.9,57.1,30.00,SSE,151,7.0,13.0,66,0.00,,---,0.00,338.00,VWS V14.00,2013-03-28 19:44:00,
2013-03-28 14:49:00,69.4,57.1,29.99,SE,136,9.0,13.0,65,0.00,,---,0.00,316.00,VWS V14.00,2013-03-28 19:49:00,
2013-03-28 14:54:00,69.7,57.0,30.00,SSE,153,10.0,10.0,64,0.00,,---,0.00,434.00,VWS V14.00,2013-03-28 19:54:00,
2013-03-28 14:59:00,69.9,57.2,29.99,South,183,6.0,18.0,64,0.00,,---,0.00,369.00,VWS V14.00,2013-03-28 19:59:00,
2013-03-28 15:04:00,70.2,56.6,29.99,South,169,2.0,13.0,62,0.00,,---,0.00,301.00,VWS V14.00,2013-03-28 20:04:00,
2013-03-28 15:09:00,70.0,56.8,29.99,SE,139,8.0,14.0,63,0.00,,---,0.00,288.00,VWS V14.00,2013-03-28 20:09:00,
2013-03-28 15:14:00,69.6,56.9,29.99,SSE,151,8.0,12.0,64,0.00,,---,0.00,295.00,VWS V14.00,2013-03-28 20:14:00,
2013-03-28 15:19:00,69.5,56.8,29.99,SSE,148,7.0,16.0,64,0.00,,---,0.00,269.00,VWS V14.00,2013-03-28 20:19:00,
2013-03-28 15:24:00,69.2,57.0,29.98,South,174,9.0,13.0,65,0.00,,---,0.00,237.00,VWS V14.00,2013-03-28 20:24:00,
2013-03-28 15:29:00,69.0,56.8,29.98,SSE,148,5.0,14.0,65,0.00,,---,0.00,181.00,VWS V14.00,2013-03-28 20:29:00,
2013-03-28 15:34:00,68.9,57.1,29.98,SSE,156,5.0,9.0,66,0.00,,---,0.00,197.00,VWS V14.00,2013-03-28 20:34:00,
2013-03-28 15:39:00,68.9,56.7,29.99,South,183,7.0,15.0,65,0.00,,---,0.00,183.00,VWS V14.00,2013-03-28 20:39:00,
2013-03-28 15:44:00,68.6,56.0,29.99,SE,132,12.0,15.0,64,0.00,,---,0.00,229.00,VWS V14.00,2013-03-28 20:44:00,
2013-03-28 15:49:00,68.4,55.8,29.99,SSE,158,5.0,18.0,64,0.00,,---,0.00,232.00,VWS V14.00,2013-03-28 20:49:00,
2013-03-28 15:54:00,68.4,56.6,29.98,SSE,155,10.0,10.0,66,0.00,,---,0.00,301.00,VWS V14.00,2013-03-28 20:54:00,
2013-03-28 15:59:00,68.6,56.4,29.98,SE,127,5.0,12.0,65,0.00,,---,0.00,181.00,VWS V14.00,2013-03-28 20:59:00,
2013-03-28 16:04:00,68.7,56.9,29.98,SSE,150,8.0,10.0,66,0.00,,---,0.00,223.00,VWS V14.00,2013-03-28 21:04:00,
2013-03-28 16:09:00,68.8,56.6,29.98,SSE,153,8.0,11.0,65,0.00,,---,0.00,318.00,VWS V14.00,2013-03-28 21:09:00,
2013-03-28 16:14:00,69.0,56.8,29.98,South,186,6.0,17.0,65,0.00,,---,0.00,297.00,VWS V14.00,2013-03-28 21:14:00,
2013-03-28 16:19:00,69.2,56.5,29.98,SSE,151,10.0,17.0,64,0.00,,---,0.00,299.00,VWS V14.00,2013-03-28 21:19:00,
2013-03-28 16:24:00,69.3,56.6,29.98,SSE,155,9.0,11.0,64,0.00,,---,0.00,278.00,VWS V14.00,2013-03-28 21:24:00,
2013-03-28 16:29:00,69.2,57.0,29.98,South,173,9.0,13.0,65,0.00,,---,0.00,267.00,VWS V14.00,2013-03-28 21:29:00,
2013-03-28 16:34:00,69.0,56.8,29.98,SE,140,8.0,12.0,65,0.00,,---,0.00,223.00,VWS V14.00,2013-03-28 21:34:00,
2013-03-28 16:39:00,68.8,56.6,29.98,SSE,165,8.0,13.0,65,0.00,,---,0.00,288.00,VWS V14.00,2013-03-28 21:39:00,
2013-03-28 16:44:00,68.7,56.9,29.98,SE,142,6.0,14.0,66,0.00,,---,0.00,206.00,VWS V14.00,2013-03-28 21:44:00,
2013-03-28 16:49:00,68.6,56.8,29.98,SSE,162,7.0,14.0,66,0.00,,---,0.00,216.00,VWS V14.00,2013-03-28 21:49:00,
2013-03-28 16:54:00,68.4,56.6,29.98,SSE,167,6.0,11.0,66,0.00,,---,0.00,144.00,VWS V14.00,2013-03-28 21:54:00,
2013-03-28 16:59:00,68.3,56.9,29.98,SSE,153,7.0,15.0,67,0.00,,---,0.00,171.00,VWS V14.00,2013-03-28 21:59:00,
2013-03-28 17:04:00,68.2,57.2,29.98,SE,137,7.0,12.0,68,0.00,,---,0.00,174.00,VWS V14.00,2013-03-28 22:04:00,
2013-03-28 17:09:00,68.1,57.2,29.98,SSE,153,5.0,21.0,68,0.00,,---,0.00,142.00,VWS V14.00,2013-03-28 22:09:00,
2013-03-28 17:14:00,68.0,57.1,29.98,SE,146,6.0,11.0,68,0.00,,---,0.00,236.00,VWS V14.00,2013-03-28 22:14:00,
2013-03-28 17:19:00,68.0,57.5,29.98,SSE,165,8.0,14.0,69,0.00,,---,0.00,195.00,VWS V14.00,2013-03-28 22:19:00,
2013-03-28 17:24:00,68.1,57.6,29.97,SSE,153,4.0,9.0,69,0.00,,---,0.00,251.00,VWS V14.00,2013-03-28 22:24:00,
2013-03-28 17:29:00,68.2,57.2,29.98,SE,139,6.0,13.0,68,0.00,,---,0.00,237.00,VWS V14.00,2013-03-28 22:29:00,
2013-03-28 17:34:00,68.1,57.6,29.98,SE,140,9.0,14.0,69,0.00,,---,0.00,153.00,VWS V14.00,2013-03-28 22:34:00,
2013-03-28 17:39:00,67.9,57.4,29.98,South,175,9.0,14.0,69,0.00,,---,0.00,204.00,VWS V14.00,2013-03-28 22:39:00,
2013-03-28 17:44:00,67.7,57.2,29.98,SSE,165,6.0,12.0,69,0.00,,---,0.00,125.00,VWS V14.00,2013-03-28 22:44:00,
2013-03-28 17:49:00,67.6,57.5,29.98,SSE,166,7.0,12.0,70,0.00,,---,0.00,163.00,VWS V14.00,2013-03-28 22:49:00,
2013-03-28 17:54:00,67.6,57.5,29.98,SSE,161,6.0,15.0,70,0.00,,---,0.00,178.00,VWS V14.00,2013-03-28 22:54:00,
2013-03-28 17:59:00,67.5,57.4,29.98,South,176,4.0,15.0,70,0.00,,---,0.00,132.00,VWS V14.00,2013-03-28 22:59:00,
2013-03-28 18:04:00,67.5,57.4,29.98,SE,146,5.0,7.0,70,0.00,,---,0.00,144.00,VWS V14.00,2013-03-28 23:04:00,
2013-03-28 18:09:00,67.5,57.8,29.99,South,173,9.0,11.0,71,0.00,,---,0.00,88.00,VWS V14.00,2013-03-28 23:09:00,
2013-03-28 18:14:00,67.2,57.5,29.98,SSE,159,13.0,13.0,71,0.00,,---,0.00,123.00,VWS V14.00,2013-03-28 23:14:00,
2013-03-28 18:19:00,66.8,57.5,29.98,SE,145,4.0,17.0,72,0.00,,---,0.00,90.00,VWS V14.00,2013-03-28 23:19:00,
2013-03-28 18:24:00,66.5,57.6,29.98,SSE,168,9.0,17.0,73,0.00,,---,0.00,116.00,VWS V14.00,2013-03-28 23:24:00,
2013-03-28 18:29:00,66.2,57.3,29.99,SE,137,9.0,20.0,73,0.00,,---,0.00,60.00,VWS V14.00,2013-03-28 23:29:00,
2013-03-28 18:34:00,66.1,57.6,29.99,SE,130,8.0,9.0,74,0.00,,---,0.00,69.00,VWS V14.00,2013-03-28 23:34:00,
2013-03-28 18:39:00,65.9,57.4,29.99,SE,141,9.0,15.0,74,0.00,,---,0.00,121.00,VWS V14.00,2013-03-28 23:39:00,
2013-03-28 18:44:00,65.9,57.4,29.98,SE,136,8.0,15.0,74,0.00,,---,0.00,91.00,VWS V14.00,2013-03-28 23:44:00,
2013-03-28 18:49:00,65.9,57.8,29.98,SE,145,10.0,17.0,75,0.00,,---,0.00,84.00,VWS V14.00,2013-03-28 23:49:00,
2013-03-28 18:54:00,65.8,57.7,29.98,SSE,151,7.0,12.0,75,0.00,,---,0.00,70.00,VWS V14.00,2013-03-28 23:54:00,
2013-03-28 18:59:00,65.7,57.6,29.98,SSW,194,4.0,14.0,75,0.00,,---,0.00,60.00,VWS V14.00,2013-03-28 23:59:00,
2013-03-28 19:04:00,65.6,57.5,29.99,SE,142,11.0,11.0,75,0.00,,---,0.00,70.00,VWS V14.00,2013-03-29 00:04:00,
2013-03-28 19:09:00,65.4,57.3,29.99,SSE,152,6.0,12.0,75,0.00,,---,0.00,46.00,VWS V14.00,2013-03-29 00:09:00,
2013-03-28 19:14:00,65.3,57.5,30.00,SSE,157,8.0,11.0,76,0.00,,---,0.00,47.00,VWS V14.00,2013-03-29 00:14:00,
2013-03-28 19:19:00,65.1,57.4,29.99,SSE,152,7.0,14.0,76,0.00,,---,0.00,25.00,VWS V14.00,2013-03-29 00:19:00,
2013-03-28 19:23:00,64.9,57.2,30.00,SSE,157,6.0,9.0,76,0.00,,---,0.00,23.00,VWS V14.00,2013-03-29 00:23:00,
2013-03-28 19:28:00,64.7,57.3,30.00,SE,138,9.0,14.0,77,0.00,,---,0.00,30.00,VWS V14.00,2013-03-29 00:28:00,
2013-03-28 19:33:00,64.4,57.0,30.00,South,172,4.0,10.0,77,0.00,,---,0.00,25.00,VWS V14.00,2013-03-29 00:33:00,
2013-03-28 19:38:00,64.2,57.2,30.00,SSE,159,2.0,11.0,78,0.00,,---,0.00,16.00,VWS V14.00,2013-03-29 00:38:00,
2013-03-28 19:43:00,64.1,57.1,29.99,SSE,157,2.0,9.0,78,0.00,,---,0.00,7.00,VWS V14.00,2013-03-29 00:43:00,
2013-03-28 19:48:00,64.0,57.4,29.99,SE,141,4.0,14.0,79,0.00,,---,0.00,0.00,VWS V14.00,2013-03-29 00:48:00,
2013-03-28 19:53:00,64.0,57.4,29.99,SE,146,7.0,10.0,79,0.00,,---,0.00,0.00,VWS V14.00,2013-03-29 00:53:00,
2013-03-28 19:58:00,63.9,57.3,29.99,ESE,116,6.0,12.0,79,0.00,,---,0.00,0.00,VWS V14.00,2013-03-29 00:58:00,
2013-03-28 20:03:00,63.8,57.2,29.99,ESE,119,6.0,14.0,79,0.00,,---,0.00,0.00,VWS V14.00,2013-03-29 01:03:00,
2013-03-28 20:08:00,63.7,57.1,29.99,SE,130,7.0,14.0,79,0.00,,---,0.00,0.00,VWS V14.00,2013-03-29 01:08:00,
2013-03-28 20:13:00,63.7,57.1,29.99,SE,136,6.0,12.0,79,0.00,,---,0.00,0.00,VWS V14.00,2013-03-29 01:13:00,
2013-03-28 20:18:00,63.6,57.0,29.99,SE,135,6.0,12.0,79,0.00,,---,0.00,0.00,VWS V14.00,2013-03-29 01:18:00,
2013-03-28 20:23:00,63.6,57.0,29.99,ESE,106,5.0,12.0,79,0.00,,---,0.00,0.00,VWS V14.00,2013-03-29 01:23:00,
2013-03-28 20:28:00,63.5,56.9,29.99,ESE,105,7.0,12.0,79,0.00,,---,0.00,0.00,VWS V14.00,2013-03-29 01:28:00,
2013-03-28 20:33:00,63.4,57.1,29.99,SE,127,6.0,9.0,80,0.00,,---,0.00,0.00,VWS V14.00,2013-03-29 01:33:00,
2013-03-28 20:38:00,63.4,57.1,29.99,SSE,153,7.0,14.0,80,0.00,,---,0.00,0.00,VWS V14.00,2013-03-29 01:38:00,
2013-03-28 20:43:00,63.3,57.0,29.99,SE,132,8.0,9.0,80,0.00,,---,0.00,0.00,VWS V14.00,2013-03-29 01:43:00,
2013-03-28 20:48:00,63.3,57.0,29.99,SSE,148,6.0,14.0,80,0.00,,---,0.00,0.00,VWS V14.00,2013-03-29 01:48:00,
2013-03-28 20:53:00,63.3,57.0,29.99,SE,124,6.0,11.0,80,0.00,,---,0.00,0.00,VWS V14.00,2013-03-29 01:53:00,
2013-03-28 20:58:00,63.3,57.0,30.00,SE,134,6.0,16.0,80,0.00,,---,0.00,0.00,VWS V14.00,2013-03-29 01:58:00,
2013-03-28 21:03:00,63.2,56.9,29.99,ESE,123,4.0,11.0,80,0.00,,---,0.00,0.00,VWS V14.00,2013-03-29 02:03:00,
2013-03-28 21:08:00,63.1,56.8,29.99,SE,132,5.0,12.0,80,0.00,,---,0.00,0.00,VWS V14.00,2013-03-29 02:08:00,
2013-03-28 21:14:00,63.0,56.7,29.99,ESE,122,8.0,9.0,80,0.00,,---,0.00,0.00,VWS V14.00,2013-03-29 02:14:00,
2013-03-28 21:18:00,62.7,56.5,29.99,East,101,6.0,12.0,80,0.00,,---,0.00,0.00,VWS V14.00,2013-03-29 02:18:00,
2013-03-28 21:23:00,62.6,56.7,29.99,ESE,119,7.0,8.0,81,0.00,,---,0.00,0.00,VWS V14.00,2013-03-29 02:23:00,
2013-03-28 21:28:00,62.4,56.5,29.99,SE,142,4.0,12.0,81,0.00,,---,0.00,0.00,VWS V14.00,2013-03-29 02:28:00,
2013-03-28 21:33:00,62.2,56.3,29.99,SE,126,7.0,13.0,81,0.00,,---,0.00,0.00,VWS V14.00,2013-03-29 02:33:00,
2013-03-28 21:38:00,62.1,56.5,29.99,SE,135,9.0,14.0,82,0.00,,---,0.00,0.00,VWS V14.00,2013-03-29 02:38:00,
2013-03-28 21:43:00,62.0,56.5,29.99,SE,143,10.0,14.0,82,0.00,,---,0.00,0.00,VWS V14.00,2013-03-29 02:43:00,
2013-03-28 21:48:00,61.9,56.3,29.99,SE,141,2.0,14.0,82,0.00,,---,0.00,0.00,VWS V14.00,2013-03-29 02:48:00,
2013-03-28 21:53:00,61.8,56.2,29.98,East,97,7.0,9.0,82,0.00,,---,0.00,0.00,VWS V14.00,2013-03-29 02:53:00,
2013-03-28 21:58:00,61.8,56.2,29.98,SSE,157,11.0,14.0,82,0.00,,---,0.00,0.00,VWS V14.00,2013-03-29 02:58:00,
2013-03-28 22:03:00,62.0,56.5,29.99,SE,137,5.0,12.0,82,0.00,,---,0.00,0.00,VWS V14.00,2013-03-29 03:03:00,
2013-03-28 22:08:00,62.1,56.5,29.98,SSE,155,7.0,17.0,82,0.00,,---,0.00,0.00,VWS V14.00,2013-03-29 03:08:00,
2013-03-28 22:13:00,62.2,56.3,29.99,SSE,159,6.0,10.0,81,0.00,,---,0.00,0.00,VWS V14.00,2013-03-29 03:13:00,
2013-03-28 22:18:00,62.3,56.4,29.99,SSE,167,7.0,11.0,81,0.00,,---,0.00,0.00,VWS V14.00,2013-03-29 03:18:00,
2013-03-28 22:23:00,62.3,56.4,29.99,SE,138,6.0,11.0,81,0.00,,---,0.00,0.00,VWS V14.00,2013-03-29 03:23:00,
2013-03-28 22:28:00,62.3,56.4,29.99,SSE,148,6.0,11.0,81,0.00,,---,0.00,0.00,VWS V14.00,2013-03-29 03:28:00,
2013-03-28 22:33:00,62.3,56.4,30.00,SE,140,6.0,8.0,81,0.00,,---,0.00,0.00,VWS V14.00,2013-03-29 03:33:00,
2013-03-28 22:38:00,62.3,56.4,29.99,ESE,122,5.0,13.0,81,0.00,,---,0.00,0.00,VWS V14.00,2013-03-29 03:38:00,
2013-03-28 22:43:00,62.3,56.4,29.99,SE,134,5.0,11.0,81,0.00,,---,0.00,0.00,VWS V14.00,2013-03-29 03:43:00,
2013-03-28 22:48:00,62.3,56.1,30.00,SE,134,5.0,11.0,80,0.00,,---,0.00,0.00,VWS V14.00,2013-03-29 03:48:00,
2013-03-28 22:53:00,62.3,56.1,29.99,SE,142,8.0,11.0,80,0.00,,---,0.00,0.00,VWS V14.00,2013-03-29 03:53:00,
2013-03-28 22:58:00,62.2,56.0,29.99,SE,134,8.0,15.0,80,0.00,,---,0.00,0.00,VWS V14.00,2013-03-29 03:58:00,
2013-03-28 23:00:00,62.3,56.1,29.99,SSE,153,9.0,15.0,80,0.00,,---,0.00,0.00,VWS V14.00,2013-03-29 04:00:00,
2013-03-28 23:05:00,62.2,56.0,30.00,South,169,6.0,12.0,80,0.00,,---,0.00,0.00,VWS V14.00,2013-03-29 04:05:00,
2013-03-28 23:10:00,62.2,56.0,30.00,SE,130,2.0,12.0,80,0.00,,---,0.00,0.00,VWS V14.00,2013-03-29 04:10:00,
2013-03-28 23:15:00,62.2,56.0,30.00,SE,142,6.0,9.0,80,0.00,,---,0.00,0.00,VWS V14.00,2013-03-29 04:15:00,
2013-03-28 23:20:00,62.1,55.9,30.01,SE,134,1.0,13.0,80,0.00,,---,0.00,0.00,VWS V14.00,2013-03-29 04:20:00,
2013-03-28 23:25:00,62.1,55.9,30.01,ESE,115,6.0,9.0,80,0.00,,---,0.00,0.00,VWS V14.00,2013-03-29 04:25:00,
2013-03-28 23:30:00,62.1,55.9,30.01,SE,124,8.0,13.0,80,0.00,,---,0.00,0.00,VWS V14.00,2013-03-29 04:30:00,
2013-03-28 23:35:00,62.1,55.9,30.01,SE,142,8.0,8.0,80,0.00,,---,0.00,0.00,VWS V14.00,2013-03-29 04:35:00,
2013-03-28 23:40:00,62.0,55.8,30.01,SE,142,4.0,9.0,80,0.00,,---,0.00,0.00,VWS V14.00,2013-03-29 04:40:00,
2013-03-28 23:45:00,62.0,56.1,30.01,SE,145,6.0,8.0,81,0.00,,---,0.00,0.00,VWS V14.00,2013-03-29 04:45:00,
2013-03-28 23:50:00,62.0,56.1,30.01,SSE,149,5.0,12.0,81,0.00,,---,0.00,0.00,VWS V14.00,2013-03-29 04:50:00,
2013-03-28 23:55:00,62.1,55.9,30.01,SSE,152,5.0,13.0,80,0.00,,---,0.00,0.00,VWS V14.00,2013-03-29 04:55:00,